Tracking 20041 objects as of 22-Nov-2019
Live streaming from Space Station
objects crossing your sky now

NOAA 16 DEB

Track NOAA 16 DEB now!
10-day predictions


NORAD ID: 42335
Int'l Code: 2000-055QB
Perigee: 818.1 km
Apogee: 862.8 km
Inclination: 98.7 °
Period: 101.6 minutes
Semi major axis: 7211 km
RCS: Unknown
Launch date: September 21, 2000
Source: United States (US)
Launch site: AIR FORCE WESTERN TEST RANGE (AFWTR)

Note: This is SATELLITE DEBRIS
aabbcc
Your satellite tracking list
Your tracking list is empty




NASA's NSSDC Master Catalog

Two Line Element Set (TLE):
1 42335U 00055QB  19326.13672823  .00000596  00000-0  31306-3 0  9996
2 42335  98.7193  31.3575 0030987 320.1339  39.7560 14.17638354191887
Source of the keplerian elements: AFSPC